[[{"header":{"parameterUnit":"m.s-1","parameterCategory":2,"la1":30.2991,"la2":30.254,"lo1":-89.0895,"lo2":-89.0444,"dy":0.0017,"dx":0.0017,"nx":28,"ny":28,"refTime":"2024-08-25T21:00:00:Z","depth":"0","parameterNumber":2,"parameterNumberName":"U-component_of_CURRENTS"},"data":[0,0,0,0,0,0,0,0,0,0,0,0,0,0,0,0,0,0,0,0,0,0,0,0,0,0,0,0,0,0,0,0,0,0,0,0,0,0,0,0,0,0,0,0,0,0,0,0,0,0,0,0,0,0,0,0,0,0,0.3383,0.3383,0,0.3373,0.3373,0.3373,0.3369,0.3369,0.3369,0.3369,0.3292,0.329,0.3287,0,0,0,0,0,0,0,0,0,0,0,0,0,0.3388,0.3388,0.3383,0.3383,0.3383,0.3373,0.3373,0.3373,0.3369,0.3369,0.3369,0.3369,0.3293,0.329,0.3287,0,0,0,0,0,0,0,0,0,0,0,0,0,0.3382,0.3388,0.3383,0.3381,0.3381,0.3373,0.3373,0.3373,0.3369,0.3369,0.3369,0.3369,0.3293,0.329,0.3287,0.3261,0,0,0.3277,0.3275,0,0,0,0,0,0,0,0,0.3382,0.3381,0.3381,0.3381,0.3381,0.3374,0.3347,0.3333,0.3369,0.3371,0.3369,0.337,0.3314,0.3309,0.3305,0.3258,0.3255,0.3276,0.3274,0.3273,0.3272,0,0,0,0,0,0,0,0.3382,0.3381,0.3377,0.3381,0.3381,0.3378,0.3377,0.3344,0.3339,0.3371,0.3371,0.3373,0.3313,0.3308,0.3303,0.3253,0.3277,0.3274,0.3272,0.327,0.3235,0.3236,0,0,0,0,0,0,0.3387,0.3382,0.3378,0.3377,0.3384,0.3377,0.3376,0.3374,0.3341,0.3337,0.3373,0.3373,0.3314,0.3307,0.33,0.3292,0.3273,0.327,0.3268,0.3234,0.3235,0.3236,0,0,0,0,0,0,0.3387,0.3386,0.3378,0.3381,0.338,0.3377,0.3375,0.3374,0.3372,0.3343,0.3337,0.3372,0.3314,0.3305,0.328,0.3288,0.3268,0.3265,0.3233,0.3234,0.3236,0.326,0,0,0,0,0,0,0.3387,0.3386,0.3388,0.3381,0.338,0.3369,0.3375,0.3374,0.3373,0.3373,0.334,0.3333,0.3313,0.3285,0.3277,0.3283,0.3263,0.3231,0.3233,0.3235,0.3258,0.3262,0.3266,0,0,0,0,0,0.3387,0.3383,0.3388,0.3387,0.3381,0.3369,0.3367,0.3366,0.3373,0.3366,0.3355,0.3335,0.3293,0.3283,0.3273,0.3278,0.323,0.3233,0.3235,0.3256,0.3261,0.3265,0,0,0,0,0,0,0.3389,0.3383,0.3387,0.3383,0.3377,0.3369,0.3363,0.3367,0.3354,0.3354,0.3332,0.3324,0.3309,0.3293,0.3283,0.3279,0.3264,0.3264,0.3283,0.3288,0.3292,0.3308,0.326,0,0,0,0,0,0.3391,0.3382,0.338,0.3375,0.3373,0.337,0.3367,0.3366,0.3355,0.3351,0.3332,0.332,0.3311,0.3299,0.3281,0.3265,0.329,0.327,0.3274,0.3277,0.3287,0.3338,0.3348,0.3244,0.3244,0.3244,0,0,0.3389,0.3385,0.338,0.3375,0.3369,0.3367,0.3368,0.336,0.3364,0.3341,0.3334,0.3323,0.3311,0.3302,0.3295,0.3287,0.3323,0.328,0.3283,0.3291,0.3342,0.3352,0.3361,0.3246,0.3245,0.3245,0,0,0.3376,0.3378,0.3366,0.3364,0.3358,0.3361,0.336,0.3353,0.3355,0.3345,0.3344,0.3346,0.3313,0.3321,0.3319,0.3335,0.3342,0.3328,0.3356,0.3405,0.3414,0.3423,0.3479,0.3492,0.3331,0.3331,0.3331,0,0.3378,0.3365,0.3361,0.3354,0.3359,0.336,0.3359,0.336,0.3348,0.3357,0.3345,0.3351,0.3331,0.3352,0.3359,0.3344,0.3375,0.3334,0.3411,0.3419,0.3427,0.3483,0.3497,0.3332,0.3332,0.3332,0.3332,0,0.3355,0.3353,0.3345,0.3343,0.3347,0.3341,0.3351,0.3356,0.3363,0.3369,0.3385,0.3375,0.3387,0.3383,0.3369,0.3419,0.3425,0.3409,0.3398,0.3439,0.3495,0.351,0.3334,0.3334,0.3333,0.3333,0,0,0.3338,0.3332,0.3329,0.3334,0.3344,0.3343,0.3362,0.3379,0.3405,0.3399,0.3436,0.3429,0.3438,0.344,0.3436,0.3472,0.3551,0.3463,0.3465,0.3518,0.3673,0.3677,0.3693,0.3547,0.355,0.3551,0.3694,0,0.3323,0.331,0.3317,0.3321,0.332,0.3346,0.3368,0.3389,0.341,0.3442,0.3459,0.3479,0.3457,0.347,0.3506,0.3532,0.3588,0.3515,0.3626,0.363,0.3627,0.3709,0.3473,0.3579,0.3708,0.371,0.3712,0,0.3294,0.3295,0.3288,0.3321,0.3325,0.3334,0.3387,0.3407,0.3459,0.3483,0.3521,0.3532,0.3582,0.3559,0.3654,0.3607,0.3651,0.3676,0.3682,0.3688,0.366,0.3557,0.3601,0.3455,0.3734,0.3732,0.373,0,0.3264,0.3277,0.3274,0.3279,0.3313,0.3329,0.3358,0.3411,0.3439,0.3514,0.3554,0.3605,0.3643,0.3699,0.3749,0.3707,0.3866,0.3815,0.3872,0.3873,0.3695,0.3677,0.3607,0.3913,0.3913,0.3912,0.3912,0,0.3232,0.3222,0.3259,0.325,0.3268,0.3312,0.3342,0.3389,0.3461,0.3512,0.3571,0.363,0.3681,0.3764,0.3798,0.3894,0.3916,0.3907,0.3919,0.3699,0.368,0.3565,0.3531,0.3918,0.3916,0.3915,0.3914,0,0.3152,0.318,0.3176,0.3222,0.324,0.3247,0.3311,0.3344,0.3436,0.3514,0.3542,0.3657,0.3782,0.3858,0.3965,0.3966,0.3927,0.4083,0.383,0.3811,0.3697,0.3674,0.3591,0.3492,0.4152,0.4153,0.4154,0,0.3086,0.3083,0.3131,0.3145,0.3153,0.3183,0.3213,0.3305,0.3355,0.353,0.357,0.3723,0.3817,0.3997,0.4037,0.4137,0.3989,0.3965,0.3842,0.369,0.3673,0.3547,0.3458,0.3617,0.3613,0.361,0.3608,0,0.2974,0.3003,0.301,0.305,0.3078,0.3105,0.3164,0.3204,0.3342,0.3436,0.3576,0.3668,0.386,0.3855,0.4001,0.4004,0.3727,0.3913,0.3792,0.3301,0.3117,0.3025,0.3543,0.3582,0.3584,0.3586,0.3588,0.3589,0.2892,0.2881,0.2927,0.295,0.2991,0.3033,0.3021,0.3119,0.3202,0.3313,0.3478,0.3547,0.3618,0.3788,0.379,0.3581,0.3658,0.3405,0.3412,0.3315,0.3138,0.3635,0.3668,0.3671,0.3674,0.3676,0.3678,0,0.2813,0.2824,0.2838,0.2869,0.2872,0.2933,0.299,0.2962,0.3024,0.3166,0.3259,0.3268,0.3249,0.3257,0.3168,0.3063,0.2883,0.2941,0.2638,0.2596,0.3045,0.2936,0.2763,0.2764,0.2764,0.2764,0.2764,0.2764,0.2776,0.2763,0.2775,0.2754,0.2773,0.2723,0.2733,0.272,0.277,0.2771,0.2755,0.2835,0.2878,0.283,0.2638,0.2557,0.2354,0.2255,0.2334,0.2562,0.2601,0.2639,0.2523,0.2267,0.2266,0.1669,0.1665,0.1661]},{"header":{"parameterUnit":"m.s-1","parameterCategory":2,"la1":30.2991,"la2":30.254,"lo1":-89.0895,"lo2":-89.0444,"dy":0.0017,"dx":0.0017,"nx":28,"ny":28,"refTime":"2024-08-25T21:00:00:Z","depth":"0","parameterNumber":3,"parameterNumberName":"V-component_of_CURRENTS"},"data":[0,0,0,0,0,0,0,0,0,0,0,0,0,0,0,0,0,0,0,0,0,0,0,0,0,0,0,0,0,0,0,0,0,0,0,0,0,0,0,0,0,0,0,0,0,0,0,0,0,0,0,0,0,0,0,0,0,0,-0.0579,-0.058,0,-0.07,-0.0701,-0.0702,-0.0765,-0.0765,-0.0765,-0.0765,-0.092,-0.0924,-0.0928,0,0,0,0,0,0,0,0,0,0,0,0,0,-0.0532,-0.0532,-0.0579,-0.058,-0.0582,-0.07,-0.0701,-0.0703,-0.0765,-0.0765,-0.0765,-0.0765,-0.0918,-0.0923,-0.0928,0,0,0,0,0,0,0,0,0,0,0,0,0,-0.0591,-0.0532,-0.0579,-0.0628,-0.0634,-0.0699,-0.0701,-0.0703,-0.0765,-0.0765,-0.0765,-0.0766,-0.0917,-0.0923,-0.0929,-0.096,0,0,-0.0947,-0.0949,0,0,0,0,0,0,0,0,-0.0588,-0.0593,-0.0619,-0.0625,-0.0631,-0.0718,-0.0742,-0.0791,-0.0765,-0.0714,-0.0765,-0.0766,-0.0856,-0.0867,-0.0887,-0.0967,-0.0974,-0.0947,-0.0951,-0.0953,-0.0955,0,0,0,0,0,0,0,-0.0583,-0.0589,-0.0626,-0.0621,-0.0628,-0.0689,-0.0696,-0.0752,-0.0782,-0.0718,-0.0723,-0.0738,-0.086,-0.0881,-0.0891,-0.0976,-0.0947,-0.0952,-0.0956,-0.0958,-0.1089,-0.1089,0,0,0,0,0,0,-0.0563,-0.0584,-0.0622,-0.0629,-0.0611,-0.0689,-0.0697,-0.0689,-0.0781,-0.0795,-0.0738,-0.0741,-0.0871,-0.0884,-0.0897,-0.0936,-0.0953,-0.0959,-0.0962,-0.1089,-0.1089,-0.1089,0,0,0,0,0,0,-0.0561,-0.0565,-0.0617,-0.0612,-0.0623,-0.0689,-0.068,-0.0692,-0.0715,-0.0796,-0.081,-0.0749,-0.0872,-0.0889,-0.0948,-0.0943,-0.0962,-0.0967,-0.1089,-0.1089,-0.1089,-0.1017,0,0,0,0,0,0,-0.0559,-0.0562,-0.0553,-0.061,-0.0623,-0.0649,-0.068,-0.0694,-0.0724,-0.0729,-0.081,-0.0825,-0.0873,-0.0939,-0.0954,-0.0951,-0.0972,-0.1089,-0.1089,-0.1089,-0.1019,-0.1014,-0.101,0,0,0,0,0,-0.0557,-0.0544,-0.0551,-0.0556,-0.0605,-0.0649,-0.0661,-0.071,-0.0724,-0.0732,-0.0789,-0.0822,-0.0948,-0.0944,-0.0962,-0.096,-0.1089,-0.1089,-0.1089,-0.1021,-0.1015,-0.101,0,0,0,0,0,0,-0.0528,-0.0551,-0.0559,-0.0555,-0.0595,-0.066,-0.0672,-0.0705,-0.0756,-0.0757,-0.0831,-0.085,-0.0898,-0.094,-0.0933,-0.0996,-0.102,-0.1024,-0.0963,-0.0958,-0.0953,-0.093,-0.0977,0,0,0,0,0,-0.0512,-0.0507,-0.0544,-0.0547,-0.0553,-0.0609,-0.0634,-0.0663,-0.0717,-0.0739,-0.0801,-0.086,-0.0911,-0.0942,-0.0995,-0.1035,-0.104,-0.1043,-0.1038,-0.1034,-0.1027,-0.1028,-0.1022,-0.1088,-0.1088,-0.1088,0,0,-0.0509,-0.0519,-0.0521,-0.0541,-0.0569,-0.0587,-0.0624,-0.065,-0.0677,-0.0748,-0.0801,-0.085,-0.0918,-0.0962,-0.0986,-0.0997,-0.1014,-0.1034,-0.1029,-0.1025,-0.1027,-0.102,-0.1014,-0.1088,-0.1088,-0.1088,0,0,-0.0508,-0.0496,-0.0493,-0.0509,-0.054,-0.057,-0.0572,-0.0628,-0.0656,-0.0711,-0.0762,-0.08,-0.0897,-0.0932,-0.0964,-0.0965,-0.0989,-0.0987,-0.0947,-0.0947,-0.0941,-0.0936,-0.0909,-0.0903,-0.0983,-0.0983,-0.0983,0,-0.0502,-0.0496,-0.0506,-0.0506,-0.0514,-0.0556,-0.0558,-0.0597,-0.0674,-0.069,-0.0717,-0.0822,-0.0877,-0.0916,-0.0919,-0.0952,-0.0952,-0.0961,-0.0939,-0.0934,-0.093,-0.0904,-0.0897,-0.098,-0.098,-0.098,-0.0981,0,-0.0505,-0.0493,-0.049,-0.0494,-0.0506,-0.0512,-0.0549,-0.057,-0.0606,-0.065,-0.0695,-0.0764,-0.082,-0.0842,-0.0889,-0.089,-0.0897,-0.093,-0.0946,-0.0918,-0.0893,-0.0887,-0.0975,-0.0976,-0.0977,-0.0978,0,0,-0.0488,-0.049,-0.0484,-0.0471,-0.0488,-0.0494,-0.0516,-0.0543,-0.0546,-0.0617,-0.0624,-0.0711,-0.0736,-0.0774,-0.0823,-0.083,-0.0797,-0.0867,-0.0869,-0.0827,-0.0776,-0.0715,-0.0703,-0.0829,-0.0828,-0.0827,-0.0761,0,-0.0481,-0.0471,-0.0475,-0.046,-0.0447,-0.0462,-0.0475,-0.0502,-0.0537,-0.0557,-0.061,-0.0647,-0.0716,-0.0729,-0.0747,-0.0792,-0.0783,-0.081,-0.0822,-0.0822,-0.076,-0.0695,-0.0629,-0.0559,-0.0755,-0.0754,-0.0754,0,-0.0463,-0.0457,-0.0441,-0.0414,-0.0405,-0.0405,-0.0391,-0.041,-0.0443,-0.0466,-0.0502,-0.0557,-0.0588,-0.0641,-0.0682,-0.0699,-0.0728,-0.0756,-0.0754,-0.0719,-0.075,-0.0626,-0.0541,-0.0695,-0.0745,-0.0746,-0.0746,0,-0.0423,-0.0413,-0.0395,-0.0389,-0.0384,-0.0366,-0.036,-0.038,-0.0371,-0.0401,-0.0391,-0.0458,-0.0467,-0.0527,-0.0598,-0.064,-0.0619,-0.0683,-0.0646,-0.0642,-0.0597,-0.059,-0.0651,-0.0687,-0.0687,-0.0687,-0.0688,0,-0.0388,-0.036,-0.0372,-0.0353,-0.0312,-0.0318,-0.0276,-0.0282,-0.0277,-0.0232,-0.0335,-0.0306,-0.0441,-0.0461,-0.0541,-0.0552,-0.057,-0.0611,-0.0614,-0.0568,-0.0559,-0.0703,-0.0796,-0.0685,-0.0685,-0.0686,-0.0686,0,-0.0326,-0.0342,-0.0307,-0.0298,-0.0288,-0.025,-0.0203,-0.0172,-0.0181,-0.0116,-0.0117,-0.0178,-0.0192,-0.0301,-0.0371,-0.0449,-0.0534,-0.0487,-0.0407,-0.0402,-0.0523,-0.0613,-0.064,-0.0694,-0.0435,-0.0433,-0.0431,0,-0.0295,-0.0278,-0.0256,-0.0223,-0.0209,-0.0164,-0.0124,-0.012,-0.0072,-0.0018,0.0033,0.0018,0.0062,-0.0021,-0.0151,-0.0233,-0.042,-0.0274,-0.0349,-0.049,-0.0595,-0.0673,-0.0725,-0.0256,-0.0253,-0.025,-0.0248,0,-0.0227,-0.0222,-0.0191,-0.0132,-0.0084,-0.0031,0.0034,0.0089,0.0129,0.0221,0.0341,0.0385,0.0303,0.0254,0.01,0.0003,-0.0356,-0.0225,-0.0402,-0.0468,-0.0527,-0.0592,-0.0336,-0.0226,-0.0229,-0.023,-0.0231,-0.0232,-0.0165,-0.0125,-0.0086,-0.0015,0.0039,0.0127,0.0224,0.0315,0.0461,0.0667,0.0646,0.083,0.0616,0.0436,0.0243,-0.0108,-0.0158,-0.0238,-0.0334,-0.0398,-0.0459,-0.0132,-0.0016,-0.0017,-0.0018,-0.0019,-0.0019,0,-0.0078,-0.0033,0.0032,0.0129,0.0233,0.0226,0.0356,0.0491,0.0735,0.0943,0.1127,0.1206,0.0959,0.0593,0.0114,-0.0172,-0.0322,-0.037,-0.0505,-0.0554,-0.0277,-0.0282,-0.018,-0.018,-0.018,-0.018,-0.018,-0.018,-0.0023,0.0064,0.01,0.0291,0.0374,0.0542,0.0643,0.0844,0.1033,0.1386,0.1587,0.1683,0.1365,0.0411,-0.0272,-0.0435,-0.0692,-0.069,-0.086,-0.0729,-0.0727,-0.0725,-0.0754,-0.0754,-0.0754,-0.1093,-0.1096,-0.1099]}],[{"header":{"parameterUnit":"m.s-1","parameterCategory":2,"la1":30.2991,"la2":30.254,"lo1":-89.0895,"lo2":-89.0444,"dy":0.0017,"dx":0.0017,"nx":28,"ny":28,"refTime":"2024-08-25T21:00:00:Z","depth":"2","parameterNumber":2,"parameterNumberName":"U-component_of_CURRENTS"},"data":[0,0,0,0,0,0,0,0,0,0,0,0,0,0,0,0,0,0,0,0,0,0,0,0,0,0,0,0,0,0,0,0,0,0,0,0,0,0,0,0,0,0,0,0,0,0,0,0,0,0,0,0,0,0,0,0,0,0,0.2573,0.2573,0,0.2626,0.2627,0.2627,0.2662,0.2662,0.2662,0.2662,0.2714,0.2715,0.2716,0,0,0,0,0,0,0,0,0,0,0,0,0,0.244,0.2442,0.2573,0.2573,0.2574,0.2626,0.2627,0.2628,0.2662,0.2662,0.2662,0.2662,0.2713,0.2715,0.2716,0,0,0,0,0,0,0,0,0,0,0,0,0,0.2495,0.2443,0.2573,0.2598,0.2601,0.2626,0.2627,0.2628,0.2661,0.2662,0.2662,0.2663,0.2713,0.2715,0.2716,0.2719,0,0,0.2721,0.2722,0,0,0,0,0,0,0,0,0.2492,0.25,0.2593,0.2596,0.2599,0.2638,0.2599,0.2658,0.2661,0.2638,0.2662,0.2663,0.2688,0.2692,0.27,0.2721,0.2723,0.2721,0.2723,0.2723,0.2724,0,0,0,0,0,0,0,0.2488,0.2498,0.2593,0.2594,0.2598,0.2586,0.2595,0.261,0.266,0.264,0.2643,0.2649,0.269,0.2699,0.2702,0.2724,0.2721,0.2723,0.2724,0.2725,0.2759,0.2759,0,0,0,0,0,0,0.2486,0.2495,0.2592,0.2595,0.2546,0.2588,0.2598,0.2625,0.266,0.2666,0.2649,0.2651,0.2696,0.27,0.2704,0.2752,0.2723,0.2725,0.2726,0.2759,0.2759,0.2759,0,0,0,0,0,0,0.2484,0.2495,0.2589,0.2545,0.2556,0.2591,0.262,0.2626,0.2673,0.2667,0.2673,0.2695,0.2696,0.2701,0.2727,0.2753,0.2726,0.2727,0.2759,0.2759,0.2759,0.2821,0,0,0,0,0,0,0.248,0.2494,0.2501,0.2546,0.2559,0.2607,0.262,0.2626,0.2675,0.2679,0.2708,0.271,0.2697,0.2725,0.2729,0.2755,0.2728,0.2759,0.2759,0.2759,0.282,0.2823,0.2827,0,0,0,0,0,0.2475,0.2501,0.2502,0.2512,0.2572,0.2607,0.2612,0.2636,0.2677,0.2685,0.2708,0.2712,0.2726,0.2726,0.2731,0.2758,0.2759,0.2759,0.2759,0.2818,0.2823,0.2827,0,0,0,0,0,0,0.2452,0.2508,0.251,0.2551,0.2571,0.2613,0.2635,0.2664,0.2694,0.2725,0.272,0.2723,0.2749,0.2742,0.2743,0.2762,0.274,0.2741,0.2783,0.2788,0.2791,0.2811,0.273,0,0,0,0,0,0.2446,0.2475,0.2517,0.2542,0.257,0.2612,0.2632,0.2666,0.2701,0.2719,0.2732,0.2746,0.2745,0.276,0.2754,0.2781,0.2785,0.2795,0.2799,0.2802,0.2818,0.2857,0.2867,0.2758,0.2758,0.2758,0,0,0.2466,0.2474,0.2507,0.2536,0.257,0.2591,0.2627,0.2693,0.2727,0.272,0.2772,0.2765,0.2752,0.2766,0.2778,0.2772,0.2827,0.2802,0.2805,0.2819,0.2858,0.2869,0.2879,0.2758,0.2758,0.2758,0,0,0.2469,0.2515,0.2529,0.2546,0.2587,0.2613,0.2643,0.2709,0.2764,0.2806,0.28,0.281,0.2826,0.2809,0.2806,0.283,0.2841,0.2831,0.288,0.2918,0.2928,0.2937,0.293,0.2938,0.284,0.284,0.284,0,0.2461,0.2493,0.2535,0.2531,0.2579,0.2628,0.2679,0.2714,0.2774,0.2827,0.2831,0.2851,0.2843,0.2853,0.2854,0.2843,0.2858,0.287,0.2927,0.2936,0.2945,0.2935,0.2943,0.2843,0.2843,0.2842,0.2842,0,0.2468,0.2491,0.2514,0.2525,0.2577,0.2637,0.2709,0.2741,0.2818,0.2866,0.293,0.2912,0.2924,0.2914,0.2899,0.2943,0.293,0.2926,0.2926,0.296,0.2946,0.2954,0.2847,0.2846,0.2845,0.2844,0,0,0.2461,0.2509,0.2514,0.2526,0.2612,0.2646,0.2719,0.2804,0.2842,0.2908,0.2968,0.2981,0.3006,0.3001,0.2981,0.3008,0.3064,0.3007,0.3008,0.3016,0.3134,0.3054,0.3054,0.3092,0.3095,0.3096,0.3092,0,0.2451,0.2456,0.2515,0.2553,0.2594,0.2675,0.2723,0.2807,0.2886,0.2924,0.2986,0.3019,0.3035,0.3035,0.3079,0.3065,0.3092,0.3064,0.3085,0.3084,0.3024,0.3063,0.284,0.2813,0.3099,0.31,0.3101,0,0.2436,0.2447,0.2504,0.258,0.2615,0.2634,0.2746,0.2795,0.2876,0.2961,0.3034,0.3067,0.312,0.3112,0.3178,0.3172,0.3171,0.3158,0.3157,0.3073,0.302,0.2827,0.2815,0.3114,0.3113,0.3112,0.3111,0,0.2402,0.2447,0.2499,0.2525,0.26,0.2647,0.2698,0.2802,0.288,0.2969,0.3018,0.3113,0.3154,0.3195,0.3221,0.3211,0.3271,0.3242,0.3161,0.3152,0.2959,0.293,0.3286,0.3286,0.3286,0.3286,0.3286,0,0.2371,0.2389,0.2461,0.2471,0.2531,0.2618,0.2694,0.2749,0.2852,0.2928,0.3027,0.3075,0.3191,0.3239,0.3241,0.3242,0.3306,0.3179,0.3161,0.2967,0.2942,0.3203,0.3193,0.3285,0.3285,0.3285,0.3285,0,0.2299,0.2341,0.2374,0.2466,0.2506,0.2537,0.2687,0.271,0.2828,0.2909,0.2947,0.309,0.3155,0.3219,0.3273,0.3262,0.325,0.3225,0.2974,0.2927,0.3088,0.3082,0.3118,0.3115,0.3113,0.3112,0.311,0,0.2257,0.2262,0.2366,0.2379,0.2412,0.249,0.2541,0.2692,0.2728,0.2898,0.2901,0.3023,0.3062,0.3118,0.3127,0.3114,0.3188,0.2894,0.2827,0.31,0.3079,0.3075,0.3072,0.2575,0.2569,0.2565,0.2561,0,0.2161,0.2195,0.2221,0.2295,0.2337,0.2401,0.2474,0.2517,0.2668,0.2718,0.2774,0.2817,0.2912,0.2821,0.286,0.2824,0.2881,0.2795,0.3166,0.266,0.259,0.2569,0.2583,0.2519,0.2523,0.2526,0.2528,0.253,0.209,0.2088,0.2138,0.2195,0.2242,0.2282,0.2285,0.2342,0.2388,0.2427,0.2554,0.2535,0.2612,0.253,0.2463,0.2445,0.2633,0.2521,0.2534,0.2553,0.25,0.2431,0.2317,0.2319,0.2322,0.2324,0.2326,0,0.2031,0.2048,0.2045,0.2097,0.2089,0.2174,0.2208,0.2156,0.2129,0.2204,0.2212,0.206,0.2013,0.2089,0.1997,0.2012,0.199,0.1928,0.1877,0.1921,0.1961,0.1876,0.1527,0.1524,0.1521,0.1519,0,0,0.1984,0.1962,0.1954,0.1928,0.1963,0.1916,0.1902,0.1843,0.1839,0.177,0.1754,0.1892,0.2012,0.1719,0.1704,0.1593,0.1735,0.1535,0.2183,0.2166,0.2201,0.2321,0.2243,0,0,0,0,0]},{"header":{"parameterUnit":"m.s-1","parameterCategory":2,"la1":30.2991,"la2":30.254,"lo1":-89.0895,"lo2":-89.0444,"dy":0.0017,"dx":0.0017,"nx":28,"ny":28,"refTime":"2024-08-25T21:00:00:Z","depth":"2","parameterNumber":3,"parameterNumberName":"V-component_of_CURRENTS"},"data":[0,0,0,0,0,0,0,0,0,0,0,0,0,0,0,0,0,0,0,0,0,0,0,0,0,0,0,0,0,0,0,0,0,0,0,0,0,0,0,0,0,0,0,0,0,0,0,0,0,0,0,0,0,0,0,0,0,0,0.0598,0.0598,0,0.0532,0.0531,0.0529,0.0458,0.0458,0.0458,0.0458,0.03,0.0296,0.0292,0,0,0,0,0,0,0,0,0,0,0,0,0,0.0594,0.0594,0.0598,0.0598,0.0598,0.0532,0.0531,0.0529,0.0459,0.0458,0.0458,0.0458,0.0301,0.0296,0.0291,0,0,0,0,0,0,0,0,0,0,0,0,0,0.0561,0.0594,0.0598,0.0561,0.0558,0.0533,0.0531,0.0529,0.0459,0.0458,0.0458,0.0457,0.0302,0.0297,0.0291,0.0262,0,0,0.0272,0.027,0,0,0,0,0,0,0,0,0.0563,0.056,0.0567,0.0564,0.056,0.051,0.0472,0.0437,0.0459,0.0488,0.0458,0.0457,0.0367,0.0356,0.0334,0.0254,0.0247,0.0272,0.0268,0.0266,0.0264,0,0,0,0,0,0,0,0.0565,0.0562,0.0564,0.0567,0.0563,0.0524,0.0519,0.0464,0.0422,0.0485,0.0482,0.0488,0.0363,0.034,0.033,0.0245,0.0272,0.0267,0.0263,0.0261,0.0116,0.0116,0,0,0,0,0,0,0.0594,0.0565,0.0566,0.0563,0.057,0.0526,0.0519,0.052,0.0425,0.0413,0.0488,0.0485,0.035,0.0337,0.0324,0.0286,0.0266,0.026,0.0257,0.0116,0.0116,0.0116,0,0,0,0,0,0,0.0594,0.0595,0.0569,0.0569,0.0564,0.0528,0.0528,0.0519,0.0492,0.043,0.0414,0.0471,0.0349,0.0332,0.0272,0.0279,0.0258,0.0252,0.0117,0.0116,0.0116,0.0208,0,0,0,0,0,0,0.0594,0.0595,0.06,0.0571,0.0565,0.0561,0.0529,0.0518,0.05,0.0495,0.041,0.0395,0.0348,0.0281,0.0266,0.027,0.0247,0.0117,0.0117,0.0116,0.0206,0.0211,0.0216,0,0,0,0,0,0.0594,0.0609,0.06,0.0601,0.0575,0.0563,0.0555,0.0522,0.05,0.0493,0.0432,0.0397,0.0267,0.0276,0.0258,0.0261,0.0117,0.0117,0.0116,0.0203,0.021,0.0216,0,0,0,0,0,0,0.062,0.0603,0.0593,0.0604,0.0589,0.0554,0.0551,0.0524,0.047,0.0455,0.0389,0.037,0.0323,0.0274,0.0286,0.0217,0.0188,0.0184,0.0261,0.0266,0.0271,0.0291,0.0243,0,0,0,0,0,0.0629,0.063,0.0612,0.0624,0.0617,0.0581,0.057,0.0544,0.0501,0.0476,0.0418,0.0354,0.0307,0.0274,0.022,0.0177,0.0144,0.0167,0.0172,0.0177,0.018,0.0139,0.0142,0.0114,0.0114,0.0114,0,0,0.0642,0.0639,0.0638,0.0629,0.0611,0.0609,0.0571,0.0557,0.055,0.0467,0.0427,0.0368,0.0299,0.0257,0.0232,0.0217,0.0169,0.0177,0.0182,0.0181,0.0139,0.0142,0.0145,0.0113,0.0113,0.0114,0,0,0.0678,0.0667,0.0676,0.0663,0.0648,0.0628,0.0627,0.0583,0.0558,0.0521,0.0459,0.0401,0.033,0.0277,0.0245,0.0242,0.02,0.0228,0.0267,0.0228,0.023,0.0232,0.0208,0.0207,0.0229,0.0229,0.0229,0,0.0693,0.0699,0.0679,0.0685,0.0677,0.0642,0.0642,0.0623,0.0562,0.0543,0.0522,0.0407,0.0342,0.0293,0.0291,0.0255,0.0234,0.0255,0.0238,0.0238,0.0239,0.0213,0.021,0.0233,0.0233,0.0232,0.0232,0,0.073,0.0728,0.0735,0.0729,0.0722,0.0713,0.0691,0.068,0.065,0.0614,0.0559,0.0471,0.0402,0.0377,0.0333,0.0299,0.0285,0.0255,0.0231,0.0248,0.0219,0.0215,0.0239,0.0238,0.0237,0.0235,0,0,0.0758,0.0757,0.0756,0.0758,0.0731,0.0736,0.0741,0.0723,0.0734,0.0666,0.0654,0.0557,0.0498,0.0457,0.0387,0.0348,0.0329,0.031,0.0306,0.0303,0.0261,0.0235,0.0228,0.0305,0.0305,0.0304,0.0247,0,0.078,0.0807,0.079,0.0807,0.0809,0.0786,0.0806,0.079,0.0763,0.0748,0.0658,0.061,0.0535,0.05,0.045,0.0363,0.032,0.0348,0.023,0.0227,0.0215,0.0222,0.0236,0.0184,0.0242,0.0242,0.0241,0,0.0807,0.0816,0.0841,0.0849,0.085,0.0862,0.0881,0.0891,0.0867,0.0844,0.0779,0.0703,0.0619,0.056,0.0427,0.0455,0.0361,0.0295,0.0291,0.023,0.0192,0.0171,0.0174,0.0233,0.0234,0.0235,0.0235,0,0.0842,0.0847,0.0872,0.0869,0.0885,0.0899,0.0911,0.0911,0.093,0.0892,0.0889,0.0779,0.0728,0.0609,0.0453,0.0444,0.0323,0.0289,0.0175,0.0173,0.014,0.0136,0.0189,0.0189,0.0189,0.0189,0.0189,0,0.0866,0.088,0.0895,0.0907,0.0942,0.0943,0.0981,0.0992,0.1005,0.1029,0.0929,0.0915,0.0739,0.0638,0.0494,0.0332,0.0347,0.0185,0.0154,0.0173,0.0172,0.0173,0.0172,0.0187,0.0187,0.0188,0.0188,0,0.0902,0.091,0.0942,0.0961,0.0961,0.0998,0.1024,0.1071,0.1077,0.111,0.1097,0.1018,0.0893,0.0713,0.0523,0.0387,0.0231,0.016,0.0201,0.0176,0.0099,0.0103,0.004,0.0038,0.0037,0.0036,0.0035,0,0.0928,0.0951,0.0981,0.1016,0.102,0.1055,0.1091,0.1101,0.1156,0.1171,0.1203,0.1089,0.1018,0.0744,0.0492,0.0249,0.0211,0.0091,0.0058,0.0106,0.0082,0.0088,0.0094,0.0056,0.0056,0.0055,0.0055,0,0.097,0.0989,0.1013,0.1073,0.1111,0.1152,0.1201,0.1245,0.1285,0.1318,0.1344,0.1285,0.1024,0.0775,0.0442,0.0276,0.0135,0.0072,0.0109,0.0092,0.0116,0.0095,0.0101,0.005,0.0051,0.0051,0.0051,0.0052,0.1002,0.1025,0.107,0.1117,0.1177,0.1245,0.1278,0.135,0.1419,0.1456,0.1428,0.1335,0.108,0.0634,0.0371,0.0087,0.0099,-0.0013,-0.0009,-0.0006,0.0007,0.0027,-0.0052,-0.0052,-0.0053,-0.0053,-0.0053,0,0.1016,0.1038,0.1111,0.1167,0.1241,0.1262,0.1354,0.139,0.1462,0.1487,0.1482,0.1208,0.0942,0.0645,0.0226,-0.0013,-0.0024,-0.0096,-0.0054,-0.0048,-0.0043,-0.0031,-0.0101,-0.0102,-0.0103,-0.0104,0,0,0.1023,0.1068,0.1088,0.1185,0.1246,0.1314,0.1359,0.1424,0.1462,0.1455,0.1397,0.1312,0.0989,0.0674,0.0361,0.0124,0.009,0.0075,0.014,0.0232,0.024,0.0029,0.0056,0,0,0,0,0]}],[{"header":{"parameterUnit":"m.s-1","parameterCategory":2,"la1":30.2991,"la2":30.254,"lo1":-89.0895,"lo2":-89.0444,"dy":0.0017,"dx":0.0017,"nx":28,"ny":28,"refTime":"2024-08-25T21:00:00:Z","depth":"4","parameterNumber":2,"parameterNumberName":"U-component_of_CURRENTS"},"data":[0,0,0,0,0,0,0,0,0,0,0,0,0,0,0,0,0,0,0,0,0,0,0,0,0,0,0,0,0,0,0,0,0,0,0,0,0,0,0,0,0,0,0,0,0,0,0,0,0,0,0,0,0,0,0,0,0,0,0.1002,0.1002,0,0.1008,0.1008,0.1007,0.1008,0.1008,0.1009,0.1009,0.1115,0.1117,0.112,0,0,0,0,0,0,0,0,0,0,0,0,0,0.1029,0.1028,0.1002,0.1002,0.1003,0.1008,0.1008,0.1007,0.1008,0.1008,0.1009,0.1009,0.1114,0.1117,0.112,0,0,0,0,0,0,0,0,0,0,0,0,0,0.1021,0.1028,0.1002,0.1007,0.1008,0.1008,0.1008,0.1007,0.1008,0.1008,0.1009,0.1009,0.1113,0.1116,0.112,0.1134,0,0,0.1132,0.1133,0,0,0,0,0,0,0,0,0.1021,0.1019,0.1006,0.1006,0.1007,0.1011,0.1056,0.1056,0.1008,0.1004,0.1009,0.101,0.1092,0.1097,0.109,0.1139,0.1144,0.1132,0.1134,0.1136,0.1137,0,0,0,0,0,0,0,0.1022,0.1019,0.1,0.1006,0.1007,0.1022,0.1021,0.1056,0.1044,0.1004,0.1005,0.1012,0.1092,0.1086,0.1093,0.1145,0.1132,0.1135,0.1138,0.1139,0.1321,0.1323,0,0,0,0,0,0,0.1026,0.1019,0.1,0.1001,0.102,0.1021,0.1019,0.1006,0.1041,0.1047,0.1012,0.1012,0.108,0.1088,0.1097,0.1197,0.1136,0.114,0.1142,0.1318,0.1322,0.1324,0,0,0,0,0,0,0.1026,0.1024,0.1,0.1015,0.1013,0.1021,0.1006,0.1006,0.1027,0.1047,0.1054,0.1036,0.108,0.1092,0.1157,0.1198,0.1141,0.1145,0.1315,0.1319,0.1323,0.1345,0,0,0,0,0,0,0.1027,0.1023,0.1038,0.1014,0.1013,0.1022,0.1006,0.1006,0.1031,0.1033,0.107,0.1078,0.1081,0.1152,0.1161,0.1202,0.1148,0.1312,0.1317,0.1322,0.1341,0.1349,0.1356,0,0,0,0,0,0.1027,0.1031,0.1038,0.1038,0.1024,0.1023,0.1024,0.1028,0.1033,0.1048,0.1078,0.1078,0.119,0.1157,0.1167,0.121,0.131,0.1316,0.1321,0.1338,0.1347,0.1356,0,0,0,0,0,0,0.1036,0.1031,0.1038,0.1037,0.1046,0.1026,0.1043,0.1047,0.1078,0.1092,0.1104,0.1115,0.1194,0.1204,0.1167,0.1281,0.1253,0.1261,0.1262,0.1272,0.1279,0.1288,0.1151,0,0,0,0,0,0.105,0.1062,0.1054,0.106,0.1064,0.1062,0.1071,0.1075,0.109,0.1103,0.1131,0.1173,0.1221,0.1247,0.1291,0.1345,0.1353,0.1385,0.1392,0.1398,0.1416,0.144,0.145,0.1343,0.1343,0.1343,0,0,0.1053,0.1057,0.1062,0.1067,0.1069,0.1079,0.1067,0.1087,0.1104,0.1114,0.1163,0.1207,0.1246,0.1309,0.1345,0.1323,0.1438,0.1405,0.141,0.1425,0.1447,0.1457,0.1466,0.1347,0.1347,0.1346,0,0,0.1065,0.1069,0.1087,0.1096,0.1119,0.1116,0.113,0.1135,0.1149,0.1199,0.1221,0.1288,0.1348,0.1381,0.1405,0.1485,0.1484,0.1511,0.1545,0.1567,0.1575,0.1582,0.1614,0.1624,0.1504,0.1504,0.1504,0,0.1086,0.1088,0.1094,0.1113,0.1123,0.1135,0.115,0.1162,0.1196,0.1221,0.1227,0.1346,0.138,0.1455,0.149,0.1501,0.1517,0.1497,0.1573,0.158,0.1587,0.1618,0.1629,0.1505,0.1505,0.1505,0.1505,0,0.1091,0.1116,0.1123,0.1149,0.1164,0.1179,0.1192,0.1228,0.1255,0.1271,0.1364,0.1413,0.1485,0.1511,0.1527,0.1609,0.1607,0.1581,0.1538,0.1599,0.1629,0.1639,0.1508,0.1507,0.1507,0.1506,0,0,0.109,0.1125,0.1134,0.1156,0.1185,0.1192,0.1233,0.1268,0.1311,0.136,0.1418,0.1511,0.1552,0.1586,0.1621,0.1648,0.1718,0.1646,0.1646,0.1658,0.1782,0.1676,0.1677,0.1697,0.1699,0.1701,0.1785,0,0.1104,0.1138,0.1153,0.1194,0.1206,0.1236,0.127,0.1313,0.1359,0.1423,0.1479,0.1561,0.1571,0.1633,0.1662,0.1716,0.1747,0.1699,0.1741,0.1743,0.1624,0.1686,0.1707,0.1792,0.1795,0.1796,0.1798,0,0.1102,0.113,0.1165,0.1219,0.1228,0.1263,0.133,0.1367,0.1449,0.1492,0.1572,0.1623,0.1715,0.1701,0.1796,0.1767,0.1793,0.181,0.1812,0.1713,0.1655,0.1722,0.1816,0.1815,0.1813,0.1812,0.1811,0,0.1079,0.1138,0.1168,0.1182,0.1242,0.1283,0.1325,0.1401,0.1446,0.1555,0.1616,0.1701,0.1777,0.181,0.1868,0.1844,0.1948,0.1903,0.1829,0.1822,0.1878,0.187,0.1961,0.1961,0.1961,0.1961,0.196,0,0.1064,0.1098,0.1172,0.1185,0.1241,0.129,0.1369,0.1422,0.152,0.1577,0.1666,0.1731,0.1811,0.1876,0.1895,0.1902,0.1968,0.1857,0.1838,0.1889,0.1881,0.1886,0.1876,0.1964,0.1963,0.1962,0.1962,0,0.1026,0.1071,0.1115,0.1197,0.123,0.1272,0.1383,0.1435,0.1542,0.1625,0.1669,0.1785,0.1863,0.1923,0.1993,0.1938,0.195,0.1934,0.2015,0.1996,0.1804,0.1795,0.1852,0.1849,0.1846,0.1844,0.1842,0,0.1001,0.1023,0.1113,0.114,0.1185,0.1267,0.1316,0.143,0.148,0.1636,0.1659,0.1793,0.1853,0.1872,0.1934,0.1958,0.1932,0.1926,0.1842,0.1818,0.1795,0.1789,0.1784,0.1838,0.1837,0.1837,0.1836,0,0.096,0.1006,0.104,0.1097,0.1156,0.1204,0.1287,0.1321,0.1443,0.1565,0.1621,0.1673,0.1759,0.1803,0.1847,0.1852,0.1917,0.1899,0.1903,0.1824,0.1802,0.178,0.1778,0.1827,0.1829,0.1829,0.183,0,0.0937,0.0949,0.1003,0.1044,0.1101,0.1112,0.117,0.1233,0.1302,0.1469,0.1487,0.1619,0.1735,0.1751,0.1784,0.1791,0.1754,0.1682,0.1697,0.1707,0.162,0.1568,0.1521,0,0,0,0,0,0.0908,0.0913,0.0943,0.0973,0.1018,0.1052,0.1131,0.1191,0.1325,0.1326,0.1402,0.147,0.1535,0.1609,0.1586,0.1717,0.1756,0.1683,0.1678,0.1778,0.1789,0.1698,0,0,0,0,0,0,0.0887,0.0916,0.092,0.0902,0.0911,0.0949,0.0993,0.1076,0.1085,0.1229,0.1275,0.1387,0.1475,0.1541,0.1564,0.1584,0.155,0.1771,0.1768,0.1773,0.1782,0.179,0.17,0,0,0,0,0]},{"header":{"parameterUnit":"m.s-1","parameterCategory":2,"la1":30.2991,"la2":30.254,"lo1":-89.0895,"lo2":-89.0444,"dy":0.0017,"dx":0.0017,"nx":28,"ny":28,"refTime":"2024-08-25T21:00:00:Z","depth":"4","parameterNumber":3,"parameterNumberName":"V-component_of_CURRENTS"},"data":[0,0,0,0,0,0,0,0,0,0,0,0,0,0,0,0,0,0,0,0,0,0,0,0,0,0,0,0,0,0,0,0,0,0,0,0,0,0,0,0,0,0,0,0,0,0,0,0,0,0,0,0,0,0,0,0,0,0,0.0476,0.0476,0,0.0469,0.0468,0.0468,0.0463,0.0463,0.0463,0.0463,0.0416,0.0415,0.0414,0,0,0,0,0,0,0,0,0,0,0,0,0,0.0465,0.0465,0.0476,0.0476,0.0476,0.0469,0.0468,0.0468,0.0463,0.0463,0.0463,0.0463,0.0417,0.0415,0.0413,0,0,0,0,0,0,0,0,0,0,0,0,0,0.0463,0.0465,0.0476,0.0474,0.0474,0.0469,0.0468,0.0468,0.0463,0.0463,0.0463,0.0463,0.0417,0.0415,0.0413,0.0396,0,0,0.0407,0.0406,0,0,0,0,0,0,0,0,0.0463,0.0463,0.0474,0.0474,0.0474,0.0469,0.0448,0.0443,0.0463,0.0464,0.0463,0.0463,0.0431,0.0428,0.0424,0.0394,0.0392,0.0407,0.0405,0.0405,0.0404,0,0,0,0,0,0,0,0.0463,0.0463,0.0471,0.0474,0.0474,0.0467,0.0467,0.0446,0.0444,0.0464,0.0464,0.0467,0.0431,0.0426,0.0423,0.0391,0.0407,0.0405,0.0404,0.0403,0.0353,0.0353,0,0,0,0,0,0,0.0469,0.0463,0.0471,0.0471,0.0471,0.0467,0.0467,0.0468,0.0445,0.0443,0.0467,0.0467,0.0429,0.0425,0.0421,0.0421,0.0405,0.0403,0.0401,0.0353,0.0353,0.0353,0,0,0,0,0,0,0.0469,0.047,0.0471,0.0469,0.0469,0.0468,0.0469,0.0468,0.0473,0.0448,0.0445,0.0474,0.0429,0.0424,0.0409,0.0418,0.0402,0.04,0.0353,0.0353,0.0353,0.0406,0,0,0,0,0,0,0.0469,0.047,0.048,0.0469,0.0469,0.047,0.0469,0.0468,0.0474,0.0474,0.0452,0.0448,0.0429,0.0412,0.0407,0.0415,0.0398,0.0353,0.0353,0.0353,0.0405,0.0408,0.0411,0,0,0,0,0,0.0468,0.0476,0.048,0.0482,0.0481,0.047,0.0469,0.0467,0.0475,0.0473,0.0462,0.0449,0.0407,0.041,0.0404,0.0412,0.0353,0.0353,0.0353,0.0403,0.0407,0.0411,0,0,0,0,0,0,0.0481,0.0476,0.0481,0.0489,0.0483,0.047,0.0476,0.0474,0.0465,0.0471,0.0448,0.0442,0.0432,0.0411,0.0415,0.0395,0.0378,0.0377,0.0418,0.0422,0.0425,0.0445,0.0396,0,0,0,0,0,0.0489,0.0493,0.0485,0.0494,0.0494,0.0488,0.0489,0.0486,0.0475,0.0473,0.0458,0.0441,0.0425,0.0416,0.0395,0.0385,0.0353,0.0384,0.0387,0.039,0.0401,0.0348,0.0347,0.0352,0.0352,0.0352,0,0,0.0503,0.0497,0.0504,0.0497,0.0497,0.05,0.0488,0.0491,0.0499,0.0468,0.0474,0.0451,0.0423,0.0413,0.0407,0.0399,0.0372,0.039,0.0393,0.0402,0.0348,0.0347,0.0347,0.0352,0.0352,0.0352,0,0,0.052,0.0522,0.0529,0.0523,0.0521,0.0516,0.052,0.051,0.0513,0.0511,0.0492,0.0476,0.0452,0.0433,0.0422,0.0428,0.039,0.042,0.0454,0.0403,0.0402,0.0401,0.0362,0.0357,0.0422,0.0422,0.0423,0,0.0534,0.0544,0.053,0.0532,0.0538,0.0527,0.0539,0.0536,0.0524,0.0528,0.052,0.0488,0.0464,0.0452,0.0457,0.0437,0.0404,0.0445,0.0408,0.0406,0.0404,0.0364,0.0358,0.0425,0.0425,0.0424,0.0424,0,0.0552,0.0564,0.0568,0.0569,0.0571,0.0577,0.0573,0.0578,0.0582,0.0574,0.0568,0.0532,0.0514,0.05,0.0485,0.0463,0.0443,0.0418,0.0402,0.0407,0.0364,0.0357,0.0429,0.0428,0.0427,0.0426,0,0,0.0569,0.058,0.0583,0.0598,0.0594,0.0598,0.0615,0.0622,0.064,0.062,0.0631,0.06,0.058,0.0565,0.0534,0.0494,0.0452,0.0459,0.0455,0.0428,0.0344,0.0321,0.0311,0.0417,0.0416,0.0416,0.0321,0,0.059,0.0613,0.061,0.0641,0.0655,0.0653,0.067,0.0675,0.0673,0.0676,0.0642,0.0636,0.0604,0.0598,0.0554,0.0475,0.0435,0.0481,0.0337,0.0334,0.0318,0.0302,0.0412,0.0315,0.0314,0.0312,0.0311,0,0.0607,0.0622,0.066,0.0688,0.0696,0.0713,0.0744,0.0758,0.0753,0.075,0.0732,0.07,0.0654,0.0623,0.0496,0.0525,0.0448,0.0384,0.0378,0.0335,0.0297,0.0306,0.0298,0.0299,0.03,0.0301,0.0302,0,0.0628,0.0656,0.0696,0.0703,0.073,0.0755,0.0776,0.0785,0.0809,0.0798,0.0802,0.0737,0.0709,0.0601,0.0481,0.0482,0.0333,0.031,0.0219,0.0217,0.0244,0.0246,0.0223,0.0223,0.0223,0.0224,0.0224,0,0.0643,0.0673,0.0714,0.0733,0.0787,0.0794,0.0847,0.0855,0.0872,0.0893,0.0845,0.0833,0.0701,0.0606,0.0489,0.0332,0.0332,0.0225,0.0188,0.0268,0.0274,0.0238,0.0242,0.022,0.0221,0.0221,0.0222,0,0.0652,0.068,0.0726,0.0775,0.0799,0.0838,0.0902,0.0933,0.0943,0.0966,0.0967,0.0897,0.0764,0.0626,0.0443,0.0344,0.0195,0.0143,0.025,0.0221,0.0112,0.0119,0.0024,0.0023,0.0021,0.002,0.0019,0,0.0658,0.0685,0.076,0.0798,0.0824,0.0888,0.0934,0.097,0.0998,0.0997,0.1001,0.0904,0.0833,0.056,0.0411,0.0183,0.0153,0.0079,0.009,0.0117,0.009,0.01,0.0108,0.0017,0.0017,0.0016,0.0016,0,0.0664,0.0698,0.0736,0.0818,0.0877,0.0944,0.1006,0.103,0.1062,0.1074,0.1012,0.0889,0.074,0.0544,0.0373,0.0211,0.0124,0.0063,0.0065,0.0075,0.0107,0.0084,0.0094,0.0011,0.0012,0.0012,0.0012,0,0.067,0.0697,0.0757,0.0823,0.0903,0.0968,0.1005,0.1028,0.1058,0.105,0.1024,0.0878,0.0801,0.0558,0.0397,0.0236,0.0192,0.0137,0.0135,0.0138,0.0199,0.0259,0.0175,0,0,0,0,0,0.0667,0.0696,0.0757,0.0828,0.0906,0.0956,0.1036,0.1065,0.1093,0.1049,0.1039,0.0898,0.0659,0.0562,0.0393,0.0365,0.0165,0.0162,0.0101,-0.0016,-0.0011,0.0039,0,0,0,0,0,0,0.0663,0.0718,0.0746,0.082,0.0867,0.0955,0.1009,0.1033,0.1007,0.101,0.0884,0.084,0.0609,0.0745,0.0381,0.0337,0.0271,0.006,0.0056,-0.002,-0.0014,-0.001,0.0043,0,0,0,0,0]}]]